GW5554 Weather Reports


time (UTC)temp
C
wind
direction
speed
KPH
gust
KPH
rain 1hr
cm
rain 24hr
cm
rain mn
cm
humidity
%
barometer
mb
20260507154524 26 188 0.0 1.6 0.00 0.00 0.00 24 1014.7
20260507154009 26 175 0.0 1.6 0.00 0.00 0.00 24 1014.7
20260507153511 26 200 0.0 1.6 0.00 0.00 0.00 25 1014.7
20260507153027 26 181 0.0 3.2 0.00 0.00 0.00 25 1014.7
20260507152508 26 191 0.0 3.2 0.00 0.00 0.00 25 1014.7
20260507152011 25 224 0.0 1.6 0.00 0.00 0.00 25 1014.8
20260507151525 25 210 0.0 1.6 0.00 0.00 0.00 25 1014.7
20260507151007 25 214 0.0 1.6 0.00 0.00 0.00 25 1014.7
20260507150506 25 215 0.0 1.6 0.00 0.00 0.00 25 1014.7
20260507150017 25 214 0.0 1.6 0.00 0.00 0.00 26 1014.8
20260507145507 25 214 0.0 1.6 0.00 0.00 0.00 26 1014.7
20260507145006 24 207 0.0 1.6 0.00 0.00 0.00 26 1014.8
20260507144512 24 208 0.0 1.6 0.00 0.00 0.00 26 1014.8
20260507144006 23 173 0.0 0.0 0.00 0.00 0.00 26 1014.8
20260507143504 23 173 0.0 1.6 0.00 0.00 0.00 27 1014.8
20260507143007 22 174 0.0 1.6 0.00 0.00 0.00 28 1014.7
20260507142502 22 195 0.0 1.6 0.00 0.00 0.00 28 1014.7
20260507142005 22 113 0.0 1.6 0.00 0.00 0.00 29 1014.7
20260507141510 21 33 0.0 1.6 0.00 0.00 0.00 30 1014.7
20260507141008 20 55 0.0 1.6 0.00 0.00 0.00 31 1014.6
20260507140505 20 144 0.0 1.6 0.00 0.00 0.00 31 1014.6
20260507140026 20 37 0.0 1.6 0.00 0.00 0.00 31 1014.6
20260507135505 20 41 0.0 1.6 0.00 0.00 0.00 31 1014.6
20260507135009 20 102 0.0 1.6 0.00 0.00 0.00 31 1014.5
20260507134510 19 146 0.0 4.8 0.00 0.00 0.00 32 1014.4
20260507134006 19 176 0.0 4.8 0.00 0.00 0.00 32 1014.5
20260507133506 18 62 0.0 1.6 0.00 0.00 0.00 33 1014.4
20260507133012 18 109 0.0 1.6 0.00 0.00 0.00 34 1014.4
20260507132504 18 129 0.0 1.6 0.00 0.00 0.00 33 1014.4
20260507132005 18 150 0.0 1.6 0.00 0.00 0.00 34 1014.4
20260507131513 18 147 0.0 3.2 0.00 0.00 0.00 33 1014.3
20260507131007 18 146 0.0 3.2 0.00 0.00 0.00 33 1014.2
20260507130502 18 108 0.0 1.6 0.00 0.00 0.00 34 1014.2
20260507130008 18 123 0.0 1.6 0.00 0.00 0.00 35 1014.2
20260507125507 19 127 0.0 1.6 0.00 0.00 0.00 36 1014.2
20260507125005 20 155 0.0 1.6 0.00 0.00 0.00 32 1014.2
20260507124514 20 205 0.0 1.6 0.00 0.00 0.00 29 1014.1
20260507124006 21 266 0.0 1.6 0.00 0.00 0.00 29 1014.1
20260507123507 21 266 0.0 1.6 0.00 0.00 0.00 27 1014.0
20260507123013 21 266 0.0 3.2 0.00 0.00 0.00 26 1014.0
20260507122508 21 310 0.0 3.2 0.00 0.00 0.00 26 1014.0
20260507122006 21 286 0.0 4.8 0.00 0.00 0.00 27 1013.9
20260507121510 21 284 0.0 4.8 0.00 0.00 0.00 27 1013.9
20260507121008 21 305 0.0 4.8 0.00 0.00 0.00 27 1013.9
20260507120509 21 202 0.0 3.2 0.00 0.00 0.00 27 1013.9
20260507120026 21 259 0.0 4.8 0.00 0.00 0.00 28 1013.9
20260507115503 20 299 0.0 9.7 0.00 0.00 0.00 28 1014.0
20260507115006 20 351 1.6 9.7 0.00 0.00 0.00 30 1014.0
20260507114512 18 303 0.0 1.6 0.00 0.00 0.00 31 1014.0
20260507114013 18 211 0.0 1.6 0.00 0.00 0.00 32 1014.0
20260507113508 18 142 0.0 1.6 0.00 0.00 0.00 33 1014.1
20260507113026 18 142 0.0 1.6 0.00 0.00 0.00 32 1014.1
20260507112509 18 142 0.0 0.0 0.00 0.00 0.00 32 1014.1
20260507112011 19 142 0.0 0.0 0.00 0.00 0.00 30 1014.1
20260507111515 20 142 0.0 0.0 0.00 0.00 0.00 30 1014.0
20260507111010 20 142 0.0 0.0 0.00 0.00 0.00 28 1014.0
20260507110506 20 142 0.0 1.6 0.00 0.00 0.00 28 1014.1
20260507110012 20 142 0.0 1.6 0.00 0.00 0.00 28 1014.2
20260507105506 19 142 0.0 0.0 0.00 0.00 0.00 29 1014.2
20260507105004 19 142 0.0 0.0 0.00 0.00 0.00 29 1014.2
20260507104519 20 142 0.0 1.6 0.00 0.00 0.00 29 1014.3
20260507104006 19 142 0.0 1.6 0.00 0.00 0.00 29 1014.4
20260507103507 20 142 0.0 0.0 0.00 0.00 0.00 28 1014.3
20260507103011 20 142 0.0 0.0 0.00 0.00 0.00 29 1014.5
20260507102507 20 142 0.0 0.0 0.00 0.00 0.00 29 1014.5
20260507102010 20 142 0.0 0.0 0.00 0.00 0.00 30 1014.5
20260507101521 20 142 0.0 0.0 0.00 0.00 0.00 29 1014.6
20260507101011 20 142 0.0 1.6 0.00 0.00 0.00 29 1014.6
20260507100507 20 142 0.0 1.6 0.00 0.00 0.00 28 1014.7
20260507100028 20 142 0.0 1.6 0.00 0.00 0.00 28 1014.7
20260507095506 20 142 0.0 1.6 0.00 0.00 0.00 28 1014.7
20260507095007 20 142 0.0 1.6 0.00 0.00 0.00 28 1014.7
20260507094516 20 142 0.0 1.6 0.00 0.00 0.00 27 1014.7
20260507094007 21 142 0.0 1.6 0.00 0.00 0.00 27 1014.7
20260507093507 21 142 0.0 1.6 0.00 0.00 0.00 27 1014.7
20260507093014 21 142 0.0 1.6 0.00 0.00 0.00 27 1014.8
20260507092512 21 67 0.0 0.0 0.00 0.00 0.00 26 1014.8
20260507092007 21 63 0.0 1.6 0.00 0.00 0.00 25 1014.7
20260507091516 21 62 0.0 1.6 0.00 0.00 0.00 25 1014.7
20260507091011 21 35 0.0 3.2 0.00 0.00 0.00 25 1014.7
20260507090512 21 312 0.0 3.2 0.00 0.00 0.00 25 1014.7
20260507090015 21 295 0.0 3.2 0.00 0.00 0.00 25 1014.7
20260507085506 21 293 0.0 3.2 0.00 0.00 0.00 25 1014.8
20260507085009 21 306 0.0 1.6 0.00 0.00 0.00 26 1014.8
20260507084538 21 306 0.0 1.6 0.00 0.00 0.00 25 1014.8
20260507084007 22 281 0.0 3.2 0.00 0.00 0.00 25 1014.9
20260507083506 22 280 0.0 3.2 0.00 0.00 0.00 25 1014.9
20260507083023 22 323 0.0 3.2 0.00 0.00 0.00 25 1015.0
20260507082506 22 252 0.0 3.2 0.00 0.00 0.00 25 1015.0
20260507082007 22 354 0.0 3.2 0.00 0.00 0.00 25 1015.0
20260507081516 22 321 0.0 4.8 0.00 0.00 0.00 25 1015.1
20260507081015 22 335 0.0 4.8 0.00 0.00 0.00 25 1015.1
20260507080507 22 245 0.0 4.8 0.00 0.00 0.00 25 1015.0
20260507080015 22 328 0.0 4.8 0.00 0.00 0.00 25 1015.1
20260507075507 22 273 0.0 3.2 0.00 0.00 0.00 25 1015.1
20260507075012 22 333 0.0 3.2 0.00 0.00 0.00 25 1015.1
20260507074518 22 292 0.0 4.8 0.00 0.00 0.00 24 1015.1
20260507074008 22 329 0.0 4.8 0.00 0.00 0.00 24 1015.1
20260507073508 22 321 1.6 4.8 0.00 0.00 0.00 24 1015.1
20260507073020 22 251 0.0 3.2 0.00 0.00 0.00 24 1015.1
20260507072509 22 280 0.0 3.2 0.00 0.00 0.00 24 1015.1
20260507072007 22 314 0.0 3.2 0.00 0.00 0.00 24 1015.0
20260507071519 22 237 0.0 3.2 0.00 0.00 0.00 24 1015.0
20260507071009 22 245 0.0 3.2 0.00 0.00 0.00 24 1015.0
20260507070507 23 252 0.0 3.2 0.00 0.00 0.00 24 1015.0
20260507070023 23 324 0.0 3.2 0.00 0.00 0.00 24 1015.0
20260507065508 23 336 0.0 3.2 0.00 0.00 0.00 24 1015.0
20260507065008 23 295 0.0 6.4 0.00 0.00 0.00 24 1015.0
20260507064518 23 218 0.0 6.4 0.00 0.00 0.00 24 1015.1
20260507064007 23 307 1.6 3.2 0.00 0.00 0.00 24 1015.1
20260507063513 23 238 1.6 3.2 0.00 0.00 0.00 24 1015.1
20260507063019 23 291 0.0 3.2 0.00 0.00 0.00 24 1015.1
20260507062509 23 313 0.0 3.2 0.00 0.00 0.00 25 1015.1
20260507062010 23 248 0.0 1.6 0.00 0.00 0.00 25 1015.1
20260507061520 23 248 0.0 1.6 0.00 0.00 0.00 25 1015.0
20260507061012 23 252 0.0 1.6 0.00 0.00 0.00 25 1015.1
20260507060506 23 297 0.0 3.2 0.00 0.00 0.00 25 1015.1
20260507060032 23 311 0.0 3.2 0.00 0.00 0.00 25 1015.1
20260507055509 23 308 0.0 3.2 0.00 0.00 0.00 24 1015.1
20260507055005 23 310 0.0 1.6 0.00 0.00 0.00 24 1015.1
20260507054512 23 308 0.0 1.6 0.00 0.00 0.00 24 1015.0
20260507054006 23 320 0.0 1.6 0.00 0.00 0.00 24 1015.0
20260507053507 23 308 0.0 1.6 0.00 0.00 0.00 24 1015.1
20260507053020 23 322 0.0 1.6 0.00 0.00 0.00 24 1015.0
20260507052511 23 313 0.0 1.6 0.00 0.00 0.00 24 1015.1
20260507052004 23 314 0.0 1.6 0.00 0.00 0.00 24 1015.1
20260507051504 23 314 0.0 1.6 0.00 0.00 0.00 24 1015.1
20260507051008 23 314 0.0 0.0 0.00 0.00 0.00 24 1015.1
20260507050503 23 314 0.0 0.0 0.00 0.00 0.00 24 1015.1
20260507050020 23 314 0.0 1.6 0.00 0.00 0.00 24 1015.0
20260507045503 23 314 0.0 1.6 0.00 0.00 0.00 24 1015.0
20260507045004 23 314 0.0 1.6 0.00 0.00 0.00 24 1015.0
20260507044516 24 314 0.0 1.6 0.00 0.00 0.00 24 1015.0
20260507044010 24 338 0.0 1.6 0.00 0.00 0.00 24 1014.9
20260507043505 24 325 0.0 1.6 0.00 0.00 0.00 23 1014.9
20260507043014 24 338 0.0 1.6 0.00 0.00 0.00 23 1014.9
20260507042509 24 328 0.0 1.6 0.00 0.00 0.00 23 1014.9
20260507042007 24 328 0.0 1.6 0.00 0.00 0.00 23 1014.7
20260507041523 24 328 0.0 1.6 0.00 0.00 0.00 23 1014.7
20260507041010 25 328 0.0 1.6 0.00 0.00 0.00 23 1014.6
20260507040504 24 328 0.0 3.2 0.00 0.00 0.00 23 1014.6
20260507040005 24 327 0.0 3.2 0.00 0.00 0.00 23 1014.5
20260507035504 24 328 0.0 3.2 0.00 0.00 0.00 24 1014.4
20260507035003 24 311 0.0 0.0 0.00 0.00 0.00 25 1014.3
20260507034510 24 311 0.0 3.2 0.00 0.00 0.00 24 1014.3
20260507034005 24 311 0.0 3.2 0.00 0.00 0.00 24 1014.2
20260507033504 24 286 0.0 1.6 0.00 0.00 0.00 24 1014.2
20260507033016 24 285 0.0 1.6 0.00 0.00 0.00 24 1014.2
20260507032507 25 285 0.0 1.6 0.00 0.00 0.00 24 1014.1
20260507032007 25 282 0.0 1.6 0.00 0.00 0.00 24 1014.0
20260507031518 25 282 0.0 1.6 0.00 0.00 0.00 24 1013.9
20260507031007 25 262 0.0 1.6 0.00 0.00 0.00 24 1013.9
20260507030510 25 260 0.0 1.6 0.00 0.00 0.00 24 1013.8
20260507030022 25 261 0.0 1.6 0.00 0.00 0.00 24 1013.7
20260507025509 25 255 0.0 1.6 0.00 0.00 0.00 24 1013.6
20260507025015 25 288 0.0 1.6 0.00 0.00 0.00 23 1013.7
20260507024504 25 304 0.0 0.0 0.00 0.00 0.00 23 1013.6
20260507024004 26 304 0.0 1.6 0.00 0.00 0.00 23 1013.6
20260507023505 26 304 0.0 1.6 0.00 0.00 0.00 23 1013.4
20260507023010 26 307 0.0 1.6 0.00 0.00 0.00 23 1013.3
20260507022505 26 257 0.0 6.4 0.00 0.00 0.00 23 1013.3
20260507022005 26 241 0.0 6.4 0.00 0.00 0.00 22 1013.3
20260507021524 26 244 1.6 8.0 0.00 0.00 0.00 22 1013.3
20260507021007 26 239 1.6 8.0 0.00 0.00 0.00 22 1013.3
20260507020508 27 257 3.2 8.0 0.00 0.00 0.00 21 1013.3
20260507020023 27 266 1.6 6.4 0.00 0.00 0.00 21 1013.2
20260507015508 27 271 0.0 3.2 0.00 0.00 0.00 21 1013.2
20260507015009 28 238 0.0 3.2 0.00 0.00 0.00 20 1013.1
20260507014524 28 262 1.6 3.2 0.00 0.00 0.00 20 1013.1
20260507014015 28 212 0.0 3.2 0.00 0.00 0.00 20 1013.2
20260507013508 28 238 0.0 6.4 0.00 0.00 0.00 20 1013.1
20260507013009 28 270 1.6 9.7 0.00 0.00 0.00 20 1013.1
20260507012505 28 252 1.6 9.7 0.00 0.00 0.00 20 1013.0
20260507012007 29 255 4.8 9.7 0.00 0.00 0.00 19 1013.0
20260507011516 29 259 1.6 8.0 0.00 0.00 0.00 19 1013.0
20260507011004 29 239 4.8 12.9 0.00 0.00 0.00 20 1013.0
20260507010512 29 203 3.2 12.9 0.00 0.00 0.00 20 1012.9
20260507010028 30 252 1.6 9.7 0.00 0.00 0.00 20 1013.0
20260507005508 30 243 3.2 12.9 0.00 0.00 0.00 19 1013.0
20260507005014 29 257 1.6 12.9 0.00 0.00 0.00 19 1013.0
20260507004522 30 254 1.6 8.0 0.00 0.00 0.00 19 1012.9
20260507004011 30 246 1.6 8.0 0.00 0.00 0.00 19 1013.0
20260507003511 30 259 1.6 4.8 0.00 0.00 0.00 19 1013.0
20260507003023 30 207 1.6 4.8 0.00 0.00 0.00 18 1013.0
20260507002513 30 249 0.0 9.7 0.00 0.00 0.00 18 1013.0
20260507002014 30 236 1.6 9.7 0.00 0.00 0.00 19 1013.0
20260507001508 30 248 1.6 8.0 0.00 0.00 0.00 18 1013.0
20260507001007 30 297 1.6 4.8 0.00 0.00 0.00 19 1013.0
20260507000503 30 324 1.6 11.3 0.00 0.00 0.00 18 1012.9
20260507000011 30 244 0.0 11.3 0.00 0.00 0.00 18 1013.0
20260506235504 30 200 3.2 8.0 0.00 0.00 0.00 18 1012.9
20260506235011 30 290 3.2 4.8 0.00 0.00 0.00 18 1013.0
20260506234516 30 239 0.0 3.2 0.00 0.00 0.00 18 1013.0
20260506234009 30 231 1.6 3.2 0.00 0.00 0.00 19 1013.0
20260506233508 29 255 0.0 11.3 0.00 0.00 0.00 19 1013.0
20260506233020 29 338 1.6 14.5 0.00 0.00 0.00 19 1013.1
20260506232508 30 269 3.2 14.5 0.00 0.00 0.00 19 1013.2
20260506232010 30 257 4.8 12.9 0.00 0.00 0.00 19 1013.2
20260506231526 30 154 1.6 4.8 0.00 0.00 0.00 18 1013.2
20260506231011 31 245 1.6 4.8 0.00 0.00 0.00 18 1013.3
20260506230511 30 209 0.0 9.7 0.00 0.00 0.00 18 1013.4
20260506230012 29 189 1.6 9.7 0.00 0.00 0.00 19 1013.4
20260506225504 30 250 3.2 11.3 0.00 0.00 0.00 19 1013.4
20260506225005 29 238 4.8 11.3 0.00 0.00 0.00 20 1013.5
20260506224514 29 240 4.8 9.7 0.00 0.00 0.00 19 1013.6
20260506224007 29 236 3.2 11.3 0.00 0.00 0.00 20 1013.6
20260506223511 29 234 3.2 11.3 0.00 0.00 0.00 19 1013.7
20260506223020 29 278 3.2 8.0 0.00 0.00 0.00 19 1013.7
20260506222509 30 223 1.6 16.1 0.00 0.00 0.00 19 1013.8
20260506222015 29 288 3.2 16.1 0.00 0.00 0.00 19 1013.8
20260506221522 29 244 1.6 6.4 0.00 0.00 0.00 19 1013.9
20260506221007 29 257 3.2 6.4 0.00 0.00 0.00 20 1014.0
20260506220510 28 200 1.6 6.4 0.00 0.00 0.00 20 1014.0
20260506220030 28 262 1.6 9.7 0.00 0.00 0.00 21 1014.1
20260506215511 28 238 1.6 9.7 0.00 0.00 0.00 20 1014.2
20260506215013 28 212 1.6 9.7 0.00 0.00 0.00 20 1014.3
20260506214511 28 261 1.6 9.7 0.00 0.00 0.00 20 1014.3
20260506214006 28 318 3.2 11.3 0.00 0.00 0.00 20 1014.4
20260506213511 28 276 6.4 11.3 0.00 0.00 0.00 20 1014.5
20260506213015 28 277 3.2 9.7 0.00 0.00 0.00 20 1014.6
20260506212509 28 124 3.2 8.0 0.00 0.00 0.00 20 1014.7
20260506212013 28 257 1.6 8.0 0.00 0.00 0.00 20 1014.9
20260506211524 28 186 3.2 8.0 0.00 0.00 0.00 20 1014.9
20260506211010 28 307 0.0 8.0 0.00 0.00 0.00 21 1015.0
20260506210509 28 307 1.6 11.3 0.00 0.00 0.00 20 1015.0
20260506210032 28 148 3.2 11.3 0.00 0.00 0.00 21 1015.1
20260506205511 28 256 3.2 14.5 0.00 0.00 0.00 21 1015.2
20260506205003 28 262 4.8 14.5 0.00 0.00 0.00 21 1015.3
20260506204507 28 255 0.0 8.0 0.00 0.00 0.00 20 1015.4
20260506204006 28 162 3.2 8.0 0.00 0.00 0.00 21 1015.4
20260506203511 28 200 1.6 9.7 0.00 0.00 0.00 20 1015.5
20260506203023 27 182 1.6 9.7 0.00 0.00 0.00 22 1015.6
20260506202504 28 256 1.6 4.8 0.00 0.00 0.00 21 1015.6
20260506202009 28 110 1.6 9.7 0.00 0.00 0.00 20 1015.6
20260506201518 27 272 3.2 9.7 0.00 0.00 0.00 22 1015.6
20260506201008 27 233 3.2 12.9 0.00 0.00 0.00 22 1015.7
20260506200508 27 247 3.2 12.9 0.00 0.00 0.00 22 1015.7
20260506200022 27 256 3.2 8.0 0.00 0.00 0.00 22 1015.8
20260506195509 27 316 3.2 8.0 0.00 0.00 0.00 22 1015.8
20260506195010 27 257 0.0 8.0 0.00 0.00 0.00 22 1015.9
20260506194524 27 229 1.6 6.4 0.00 0.00 0.00 22 1015.9
20260506194002 27 198 0.0 4.8 0.00 0.00 0.00 22 1015.9
20260506193503 26 167 0.0 9.7 0.00 0.00 0.00 23 1016.0
20260506193012 26 272 3.2 9.7 0.00 0.00 0.00 23 1016.1
20260506192507 26 281 1.6 8.0 0.00 0.00 0.00 23 1016.0
20260506192008 26 248 3.2 9.7 0.00 0.00 0.00 23 1016.1
20260506191515 26 252 3.2 9.7 0.00 0.00 0.00 23 1016.1
20260506191005 26 228 3.2 8.0 0.00 0.00 0.00 23 1016.2
20260506190505 26 262 1.6 8.0 0.00 0.00 0.00 24 1016.3
20260506190019 26 136 0.0 8.0 0.00 0.00 0.00 24 1016.3
20260506185510 26 258 1.6 22.5 0.00 0.00 0.00 24 1016.4
20260506185007 26 183 3.2 22.5 0.00 0.00 0.00 24 1016.4
20260506184523 27 185 0.0 3.2 0.00 0.00 0.00 24 1016.5
20260506184008 26 5 0.0 6.4 0.00 0.00 0.00 24 1016.5
20260506183509 25 208 0.0 6.4 0.00 0.00 0.00 25 1016.6
20260506183026 25 232 1.6 11.3 0.00 0.00 0.00 27 1016.7
20260506182502 25 328 3.2 11.3 0.00 0.00 0.00 26 1016.8
20260506182007 25 292 1.6 9.7 0.00 0.00 0.00 26 1016.8
20260506181519 25 242 4.8 9.7 0.00 0.00 0.00 26 1016.9
20260506181007 25 114 1.6 6.4 0.00 0.00 0.00 27 1017.0
20260506180505 25 262 1.6 6.4 0.00 0.00 0.00 28 1017.0
20260506180016 24 238 1.6 4.8 0.00 0.00 0.00 28 1016.9
20260506175509 24 216 0.0 11.3 0.00 0.00 0.00 28 1017.0
20260506175008 23 234 1.6 11.3 0.00 0.00 0.00 29 1017.1
20260506174517 24 250 1.6 4.8 0.00 0.00 0.00 29 1017.1
20260506174007 23 98 0.0 8.0 0.00 0.00 0.00 29 1017.1
20260506173507 23 227 1.6 11.3 0.00 0.00 0.00 29 1017.1
20260506173023 23 255 1.6 11.3 0.00 0.00 0.00 30 1017.1
20260506172507 23 256 4.8 11.3 0.00 0.00 0.00 30 1017.1
20260506172011 23 280 1.6 6.4 0.00 0.00 0.00 31 1017.1
20260506171535 23 245 1.6 6.4 0.00 0.00 0.00 30 1017.1
20260506171003 22 214 3.2 8.0 0.00 0.00 0.00 31 1017.0
20260506170506 22 307 0.0 8.0 0.00 0.00 0.00 31 1017.0
20260506170011 22 268 3.2 6.4 0.00 0.00 0.00 31 1017.0
20260506165508 23 243 1.6 4.8 0.00 0.00 0.00 30 1017.1
20260506165005 23 124 0.0 4.8 0.00 0.00 0.00 30 1017.0
20260506164520 22 179 0.0 6.4 0.00 0.00 0.00 31 1017.0
20260506164013 22 253 1.6 6.4 0.00 0.00 0.00 32 1017.0
20260506163511 22 239 1.6 4.8 0.00 0.00 0.00 33 1017.0
20260506163022 22 257 0.0 4.8 0.00 0.00 0.00 32 1017.0
20260506162508 22 241 0.0 6.4 0.00 0.00 0.00 33 1016.9
20260506162011 22 255 1.6 6.4 0.00 0.00 0.00 32 1016.8
20260506161531 22 230 0.0 3.2 0.00 0.00 0.00 33 1016.8
20260506161013 21 231 0.0 3.2 0.00 0.00 0.00 34 1016.7
20260506160511 21 247 0.0 3.2 0.00 0.00 0.00 33 1016.7
20260506160040 21 69 0.0 3.2 0.00 0.00 0.00 34 1016.7
20260506155511 21 243 0.0 3.2 0.00 0.00 0.00 35 1016.7
20260506155004 20 317 0.0 4.8 0.00 0.00 0.00 34 1016.7